This demonstration page uses our WeatherBlox Daily Observations layout. Learn more.

Left ArrowRight Arrow

30.21309, -93.2044

Hourly Observations for February 18, 2022

Temp ( °F °C ) Dew Point ( °F °C ) Humidity (%) Winds ( mph kmh ) Pressure ( in mb ) Visibility ( mi km ) Precip ( " mm )
12:15 am 00:15 Partly Cloudy 45 7.1 37 3 75 75 N 17 28 30.17 1022 10 16 0.00 0.00
12:35 am 00:35 Mostly Cloudy 44 6.9 37 2.7 75 75 N 15 24 30.18 1022 10 16 0.00 0.00
12:55 am 00:55 Cloudy 44 6.8 37 2.6 75 75 N 16 26 30.19 1022 10 16 0.00 0.00
1:15 am 01:15 Cloudy 43 6.1 35 1.8 74 74 N 18 30 30.19 1022 10 16 0.00 0.00
1:35 am 01:35 Cloudy 42 5.7 34 1.3 74 74 N 18 30 30.20 1023 10 16 0.00 0.00
1:55 am 01:55 Cloudy 42 5.5 34 1.2 74 74 N 15 24 30.20 1023 10 16 0.00 0.00
2:15 am 02:15 Cloudy 41 5 33 0.6 73 73 N 15 24 30.20 1023 10 16 0.00 0.00
2:35 am 02:35 Cloudy 41 4.8 33 0.5 74 74 N 13 20 30.20 1023 10 16 0.00 0.00
2:55 am 02:55 Cloudy 40 4.6 33 0.3 74 74 NNE 14 22 30.19 1022 10 16 0.00 0.00
3:15 am 03:15 Cloudy 40 4.2 32 0 74 74 N 17 28 30.18 1022 10 16 0.00 0.00
3:35 am 03:35 Cloudy 40 4.2 32 -0.1 74 74 N 13 20 30.20 1023 10 16 0.00 0.00
3:55 am 03:55 Cloudy 39 4.1 32 -0.1 74 74 N 12 19 30.21 1023 10 16 0.00 0.00
4:15 am 04:15 Cloudy 39 4 32 -0.2 74 74 N 12 19 30.21 1023 10 16 0.00 0.00
4:35 am 04:35 Cloudy 39 4.1 32 0 75 75 N 13 20 30.20 1023 10 16 0.00 0.00
4:55 am 04:55 Cloudy 39 4.1 32 -0.2 74 74 N 16 26 30.22 1023 10 16 0.00 0.00
5:15 am 05:15 Cloudy 39 3.7 31 -0.8 73 73 N 15 24 30.24 1024 10 16 0.00 0.00
5:35 am 05:35 Cloudy 38 3.5 30 -0.9 73 73 N 12 19 30.23 1024 10 16 0.00 0.00
6:00 am 06:00 Cloudy 37 3 30 -1 75 75 N 13 20 30.24 1024 10 16 0.00 0.00
7:45 am 07:45 Cloudy 39 4 30 -1 70 70 NNE 13 20 30.30 1026 10 16 0.00 0.00
8:50 am 08:50 Mostly Cloudy 39 4 30 -1 70 70 N 12 19 30.31 1026 10 16 0.00 0.00
9:55 am 09:55 Partly Cloudy 43 6 30 -1 61 61 N 12 19 30.34 1027 10 16 0.00 0.00
10:50 am 10:50 Mostly Cloudy 45 7 30 -1 57 57 N 14 22 30.33 1027 10 16 0.00 0.00
11:45 am 11:45 Mostly Cloudy 46 8 30 -1 53 53 N 15 24 30.30 1026 10 16 0.00 0.00
12:46 pm 12:46 Mostly Sunny 50 10 32 0 50 50 N 12 19 30.27 1025 10 16 0.00 0.00
1:50 pm 13:50 Mostly Sunny 54 12 32 0 44 44 N 14 22 30.23 1024 10 16 0.00 0.00
2:50 pm 14:50 Mostly Sunny 55 13 34 1 44 44 N 14 22 30.23 1024 10 16 0.00 0.00
3:45 pm 15:45 Mostly Sunny 55 13 34 1 44 44 NNE 12 19 30.23 1024 10 16 0.00 0.00
4:50 pm 16:50 Mostly Sunny 54 12 32 0 44 44 NNE 12 19 30.24 1024 10 16 0.00 0.00
5:45 pm 17:45 Mostly Sunny 52 11 32 0 47 47 NNE 7 11 30.26 1025 10 16 0.00 0.00
6:45 pm 18:45 Mostly Clear 50 10 34 1 54 54 NNE 7 11 30.28 1025 10 16 0.00 0.00
7:45 pm 19:45 Mostly Clear 48 9 34 1 58 58 Calm 30.28 1025 10 16 0.00 0.00
8:55 pm 20:55 Mostly Clear 48 9 36 2 62 62 Calm 30.32 1027 10 16 0.00 0.00
9:50 pm 21:50 Mostly Clear 46 8 36 2 66 66 Calm 30.33 1027 10 16 0.00 0.00
10:15 pm 22:15 Clear 46 7.9 35 1.9 66 66 NNE 5 7 30.33 1027 10 16 0.00 0.00
10:35 pm 22:35 Clear 45 7.3 35 1.7 68 68 NNE 5 7 30.33 1027 10 16 0.00 0.00
10:55 pm 22:55 Clear 45 7.3 35 1.7 68 68 NNE 5 7 30.34 1027 10 16 0.00 0.00
11:15 pm 23:15 Clear 45 7.2 35 1.8 69 69 NNE 5 7 30.34 1027 10 16 0.00 0.00
11:35 pm 23:35 Clear 45 7.1 36 2 70 70 NNE 6 9 30.34 1027 10 16 0.00 0.00
11:55 pm 23:55 Clear 44 6.9 36 2.2 72 72 NNE 5 7 30.34 1027 10 16 0.00 0.00

Powered by AerisWeather